Вернуться в каталог

SL-16 DEB

АктивенLEO
NORAD 44574·DEBRIS·🇷🇺 Russia

Запущен Dec 25, 1992 с Baikonur Cosmodrome

Loading…

Ближайшие Пролёты (ближайшие 24 часа)

TLE

СвежийSource: Space-Track

Эпоха: Sep 13, 2026, 23:47 UTC

1 44574U 92093LW  26256.99101466  .00004322  00000-0  99168-3 0  9991
2 44574  71.1158 250.7779 0079957 216.5185 174.9630 14.54128449667664

Отслеживайте SL-16 DEB в реальном времени с AllMySat

Download on the App Store